星链-5958 (STARLINK-5958 )

导读

STARLINK-5958是美国SpaceX公司星链(Starlink)星座的卫星,于2023年6月12日发射。星链计划旨在通过低轨卫星组网,为全球提供高速低延迟宽带互联网服务,尤其填补偏远地区网络覆盖空白。作为大规模星座的组成部分,该卫星助力实现全球覆盖,推动卫星互联网技术商业化发展。

Basic Information
目录编号:
56921
目录名称:
STARLINK-5958
国际标识:
2023-083AX
轨道中心:
EARTH
卫星名称:
星链-5958
卫星全名:
星链-5958 (STARLINK-5958 )
卫星状态:
在轨 (已飞行1099 天)
发射日期:
2023-06-12 UTC
国别 :
美国 (US)
星等 :
--
Orbit Information
数据来源 国际轨道数据 AOE轨道数据
星历时间 2026-06-14T06:51:04+0800
1天前
查看轨道信息
2026-06-12T07:00:00+0800
3天前
查看轨道信息
半长轴 6861.19km 6861.133km
偏心率 0.0001879 0.0001967
轨道倾角 43.004° 43.004°
近地点辐角 267.872° 256.468°
升交点赤经 246.746° 258.006°
平近点角 92.191° 286.313°
近地点 481.763km 481.646km
远地点 484.343km 484.346km
周期 94.267分钟 94.266分钟
每日圈数 15.275788 15.275979
Detailed Information
固有亮度:
5
最大亮度:
2.4
卫星平台:
Starlink v1.5
覆盖范围:
全球
运营商:
太空探索技术公司
运营商所在国:
美国
制造商(研发单位):
太空探索技术公司
制造商所在国:
美国
使用方式:
暂无
Satellite Introduction
星链(Starlink)计划是由太空探索技术公司(SpaceX)提出的一个巨型低轨卫星互联网星座项目,计划在2019年至2024年间在太空搭建由约1.2万颗卫星组成的“星链”网络,其中1584颗将部署在地球上空550千米处的近地轨道,并从2020年开始工作。该卫星仍在工作。
2D Orbit Map
3D Orbit Map
Orbit Altitude Analysis Chart
Orbit Inclination Analysis Chart
Orbit Comprehensive Analysis Chart
View Comprehensive Chart